User: anonymous   Login
Location: Zagreb
(45.8000°N, 16.0000°E)
Time: 16:59:17
(UTC+02:00)
Language:

Hubble Space Telescope - Orbit

View from above orbital plane
View from above orbital plane
View from above satellite
View from above satellite

Ground track
Ground track

The orbit data is extracted from the following two-line orbital elements,

1 20580U 90037B   20227.23896385  .00000371  00000-0  11536-4 0  9992
2 20580  28.4698 297.4621 0002726 359.0918 218.6672 15.09417187464792
Epoch (UTC): 14 August 2020 05:44:06
Eccentricity: 0.0002726
inclination: 28.4698°
perigee height: 536 km
apogee height: 540 km
right ascension of ascending node: 297.4621°
argument of perigee: 359.0918°
revolutions per day: 15.09417187
mean anomaly at epoch: 218.6672°
orbit number at epoch: 46479

The dashed part of the orbit path shows where the satellite is in the earth's shadow,  

DLR